[[{"header":{"parameterUnit":"m.s-1","parameterCategory":1,"la1":30.2991,"la2":30.254,"lo1":-89.0895,"lo2":-89.0444,"dy":0.0017,"dx":0.0017,"nx":28,"ny":28,"refTime":"2024-06-30T03:00:00:Z","depth":0,"parameterNumber":2,"parameterNumberName":"U-component_of_WINDS"},"data":[0,0,0,0,0,0,0,0,0,0,0,0,0,0,0,0,0,0,0,0,0,0,0,0,0,0,0,0,0,0,0,0,0,0,0,0,0,0,0,0,0,0,0,0,0,0,0,0,0,0,0,0,0,0,0,0,0,0,0.5361,0.5359,0,0.5154,0.5152,0.5149,0.4967,0.4964,0.4962,0.496,0.4749,0.4746,0.4742,0,0,0,0,0,0,0,0,0,0,0,0,0,0.5601,0.5598,0.5361,0.5359,0.5356,0.5154,0.5151,0.5149,0.4967,0.4964,0.4962,0.4959,0.475,0.4746,0.4742,0,0,0,0,0,0,0,0,0,0,0,0,0,0.5456,0.5597,0.5362,0.5241,0.5228,0.5155,0.5151,0.5148,0.4967,0.4964,0.4961,0.4958,0.4752,0.4746,0.4741,0.4771,0,0,0.4724,0.4722,0,0,0,0,0,0,0,0,0.5464,0.5447,0.5261,0.5249,0.5235,0.5083,0.5158,0.5021,0.4968,0.5067,0.496,0.4957,0.4863,0.4848,0.4816,0.4761,0.4752,0.4724,0.4721,0.4718,0.4717,0,0,0,0,0,0,0,0.5475,0.5455,0.5279,0.5259,0.5243,0.5198,0.5174,0.5132,0.4985,0.5058,0.5044,0.5022,0.4855,0.4822,0.481,0.4749,0.4724,0.4719,0.4716,0.4714,0.471,0.4713,0,0,0,0,0,0,0.5503,0.5465,0.5286,0.5273,0.5344,0.5196,0.5169,0.5135,0.4985,0.4959,0.5025,0.5014,0.4833,0.4816,0.4802,0.4829,0.4718,0.4713,0.471,0.4706,0.471,0.4714,0,0,0,0,0,0,0.5509,0.5489,0.5294,0.5365,0.5337,0.5195,0.5158,0.5132,0.5099,0.496,0.4933,0.5018,0.483,0.4809,0.478,0.4819,0.4711,0.4706,0.4703,0.4708,0.4712,0.4883,0,0,0,0,0,0,0.5517,0.5492,0.5502,0.5367,0.5334,0.5277,0.5161,0.5131,0.509,0.5074,0.4947,0.4922,0.4826,0.479,0.4775,0.4809,0.4701,0.4699,0.4705,0.4711,0.4873,0.4893,0.491,0,0,0,0,0,0.5526,0.5558,0.5503,0.5483,0.5343,0.5279,0.526,0.5148,0.5094,0.5103,0.5014,0.4926,0.4816,0.4788,0.477,0.4804,0.4696,0.4703,0.471,0.4865,0.4889,0.4909,0,0,0,0,0,0,0.5701,0.5538,0.5475,0.5464,0.5387,0.5248,0.5256,0.5177,0.5113,0.5101,0.4964,0.4937,0.4924,0.486,0.4831,0.4825,0.4744,0.4748,0.4869,0.489,0.4908,0.4925,0.4697,0,0,0,0,0,0.5738,0.57,0.5559,0.5563,0.5527,0.5399,0.5367,0.5287,0.5202,0.5168,0.5076,0.4997,0.4945,0.4913,0.4857,0.4862,0.4833,0.4876,0.4894,0.491,0.4916,0.4917,0.4935,0.4737,0.4737,0.4737,0,0,0.5815,0.5721,0.5705,0.5596,0.5527,0.5491,0.5373,0.5339,0.5312,0.5163,0.5131,0.5061,0.4963,0.4952,0.4943,0.4899,0.4964,0.4919,0.4933,0.493,0.4926,0.4945,0.4962,0.4742,0.4741,0.474,0,0,0.5938,0.5862,0.5858,0.5791,0.5688,0.5602,0.5602,0.5474,0.5423,0.5388,0.5276,0.5241,0.5153,0.5089,0.5045,0.5144,0.5063,0.5129,0.5226,0.5228,0.5244,0.5257,0.5296,0.5311,0.5135,0.5136,0.5136,0,0.6047,0.5988,0.5866,0.584,0.5797,0.5659,0.5656,0.5596,0.548,0.5454,0.5405,0.5293,0.5217,0.5191,0.5216,0.5183,0.518,0.5145,0.5252,0.5264,0.5274,0.531,0.5324,0.5145,0.5144,0.5143,0.5142,0,0.6129,0.609,0.61,0.5992,0.5948,0.5934,0.581,0.5781,0.5705,0.5625,0.5593,0.5497,0.542,0.5407,0.5332,0.537,0.5347,0.5277,0.5193,0.5304,0.5335,0.5348,0.5158,0.5154,0.5152,0.5149,0,0,0.6358,0.6183,0.6189,0.6139,0.6015,0.5983,0.5962,0.5887,0.5867,0.579,0.5772,0.57,0.5636,0.5586,0.5502,0.5504,0.5592,0.5433,0.5429,0.5469,0.5632,0.5689,0.5707,0.5536,0.5538,0.554,0.5642,0,0.6463,0.6419,0.6309,0.6299,0.6263,0.6132,0.6114,0.6037,0.5962,0.5921,0.5836,0.579,0.5706,0.5675,0.5671,0.5583,0.5624,0.5573,0.552,0.5519,0.5552,0.5722,0.5781,0.5882,0.5653,0.5655,0.5656,0,0.658,0.6514,0.6501,0.6381,0.6361,0.6348,0.6271,0.6232,0.6142,0.6087,0.6033,0.594,0.5912,0.5833,0.5794,0.5763,0.5733,0.5687,0.5688,0.5682,0.5598,0.5724,0.5911,0.5929,0.5673,0.5672,0.5671,0,0.6754,0.666,0.6641,0.6602,0.646,0.6454,0.6395,0.6301,0.6264,0.6196,0.6171,0.6101,0.6064,0.6013,0.5905,0.5856,0.5879,0.579,0.5835,0.5839,0.5849,0.5851,0.6039,0.5824,0.5824,0.5824,0.5824,0,0.6885,0.6883,0.6718,0.6707,0.6701,0.6574,0.6572,0.65,0.6418,0.6392,0.6273,0.625,0.6107,0.6068,0.5983,0.5966,0.5948,0.5905,0.5883,0.5918,0.5924,0.59,0.5892,0.5828,0.5827,0.5826,0.5826,0,0.7079,0.6967,0.6939,0.6807,0.6773,0.6776,0.6663,0.6648,0.6564,0.6532,0.6517,0.6388,0.6336,0.6222,0.6139,0.6082,0.6087,0.6045,0.6119,0.6106,0.6159,0.6157,0.6341,0.636,0.6131,0.6134,0.6135,0,0.7172,0.7168,0.7036,0.7009,0.6955,0.6914,0.6875,0.6749,0.6714,0.6612,0.661,0.6549,0.6494,0.6417,0.6316,0.6253,0.6211,0.6279,0.6201,0.6237,0.6216,0.622,0.622,0.6299,0.6302,0.6304,0.6306,0,0.735,0.7296,0.7245,0.7175,0.7133,0.7072,0.7004,0.699,0.6848,0.6815,0.6761,0.6718,0.6634,0.6576,0.6498,0.6436,0.635,0.6331,0.6339,0.6377,0.6422,0.6402,0.6171,0.6329,0.6326,0.6325,0.6323,0.6323,0.7499,0.749,0.7397,0.7344,0.728,0.7221,0.7201,0.7115,0.7068,0.6991,0.6918,0.6873,0.6783,0.6668,0.6613,0.6576,0.6532,0.6542,0.6546,0.6551,0.6568,0.6424,0.656,0.656,0.6559,0.6558,0.6558,0,0.7675,0.7608,0.7561,0.7471,0.7431,0.735,0.7271,0.7243,0.7204,0.7128,0.7076,0.7016,0.6959,0.6853,0.6788,0.6778,0.6737,0.6766,0.6768,0.6756,0.6609,0.6611,0.6801,0.6801,0.6801,0.6801,0.6801,0.6801,0.7762,0.7744,0.7679,0.7628,0.756,0.7515,0.7478,0.7422,0.7361,0.7299,0.7251,0.7182,0.7095,0.7022,0.6967,0.6937,0.6921,0.6963,0.6922,0.6788,0.6765,0.6744,0.6745,0.696,0.696,0.7071,0.7072,0.7073]},{"header":{"parameterUnit":"m.s-1","parameterCategory":1,"la1":30.2991,"la2":30.254,"lo1":-89.0895,"lo2":-89.0444,"dy":0.0017,"dx":0.0017,"nx":28,"ny":28,"refTime":"2024-06-30T03:00:00:Z","depth":0,"parameterNumber":3,"parameterNumberName":"V-component_of_WINDS"},"data":[0,0,0,0,0,0,0,0,0,0,0,0,0,0,0,0,0,0,0,0,0,0,0,0,0,0,0,0,0,0,0,0,0,0,0,0,0,0,0,0,0,0,0,0,0,0,0,0,0,0,0,0,0,0,0,0,0,0,-2.0364,-2.0364,0,-2.042,-2.042,-2.0421,-2.0412,-2.0411,-2.0411,-2.041,-2.0466,-2.0468,-2.047,0,0,0,0,0,0,0,0,0,0,0,0,0,-2.0248,-2.025,-2.0364,-2.0364,-2.0365,-2.0419,-2.042,-2.0421,-2.0413,-2.0411,-2.041,-2.0409,-2.0465,-2.0468,-2.0471,0,0,0,0,0,0,0,0,0,0,0,0,0,-2.0301,-2.0251,-2.0363,-2.0367,-2.0368,-2.0419,-2.042,-2.0421,-2.0413,-2.0411,-2.041,-2.0409,-2.0464,-2.0468,-2.0471,-2.0521,0,0,-2.0482,-2.0483,0,0,0,0,0,0,0,0,-2.0298,-2.0305,-2.0366,-2.0367,-2.0368,-2.0408,-2.04,-2.0455,-2.0413,-2.0396,-2.041,-2.0408,-2.0447,-2.0452,-2.0466,-2.0524,-2.0526,-2.0482,-2.0484,-2.0486,-2.0487,0,0,0,0,0,0,0,-2.0294,-2.0302,-2.0386,-2.0367,-2.0368,-2.0366,-2.0372,-2.041,-2.0429,-2.0397,-2.0397,-2.0404,-2.0448,-2.0462,-2.0467,-2.0527,-2.0482,-2.0485,-2.0487,-2.0489,-2.063,-2.0631,0,0,0,0,0,0,-2.0289,-2.0299,-2.0384,-2.0387,-2.0329,-2.0369,-2.0376,-2.0396,-2.0428,-2.0432,-2.0405,-2.0403,-2.0457,-2.0463,-2.0469,-2.0531,-2.0486,-2.0489,-2.0491,-2.0628,-2.063,-2.0632,0,0,0,0,0,0,-2.0287,-2.0297,-2.0382,-2.0343,-2.0354,-2.0373,-2.0396,-2.0398,-2.0413,-2.0434,-2.0437,-2.0417,-2.0456,-2.0464,-2.0509,-2.0532,-2.0491,-2.0494,-2.0626,-2.0629,-2.0631,-2.0654,0,0,0,0,0,0,-2.0284,-2.0296,-2.0316,-2.0344,-2.0356,-2.0421,-2.0397,-2.04,-2.0419,-2.0418,-2.0446,-2.0449,-2.0456,-2.0503,-2.0512,-2.0537,-2.0497,-2.0624,-2.0627,-2.063,-2.0651,-2.0657,-2.0662,0,0,0,0,0,-2.028,-2.032,-2.0317,-2.0327,-2.0381,-2.0422,-2.0429,-2.0436,-2.0421,-2.0441,-2.0455,-2.0448,-2.0528,-2.0508,-2.0518,-2.0544,-2.0623,-2.0626,-2.063,-2.0649,-2.0656,-2.0661,0,0,0,0,0,0,-2.0294,-2.0324,-2.0321,-2.0371,-2.0394,-2.0421,-2.0446,-2.0443,-2.047,-2.0468,-2.0474,-2.0481,-2.0526,-2.0539,-2.0516,-2.0594,-2.0573,-2.0579,-2.0584,-2.0591,-2.0596,-2.0592,-2.05,0,0,0,0,0,-2.0303,-2.0334,-2.0358,-2.04,-2.0412,-2.0427,-2.0445,-2.0448,-2.0472,-2.0482,-2.0499,-2.0522,-2.0552,-2.0572,-2.0601,-2.0652,-2.0659,-2.0675,-2.068,-2.0685,-2.069,-2.0718,-2.0726,-2.0644,-2.0644,-2.0643,0,0,-2.0322,-2.0342,-2.0361,-2.0404,-2.0422,-2.0454,-2.0435,-2.047,-2.0494,-2.0487,-2.0531,-2.0544,-2.057,-2.0618,-2.064,-2.063,-2.0714,-2.0689,-2.0692,-2.0695,-2.0723,-2.0731,-2.0738,-2.0646,-2.0646,-2.0645,0,0,-2.0373,-2.0391,-2.0428,-2.0447,-2.0475,-2.0485,-2.0494,-2.0521,-2.0529,-2.0573,-2.0569,-2.0597,-2.0649,-2.0668,-2.0685,-2.0743,-2.0738,-2.0752,-2.078,-2.0807,-2.0814,-2.082,-2.0841,-2.0849,-2.0757,-2.0757,-2.0757,0,-2.0393,-2.0441,-2.0448,-2.0483,-2.0502,-2.0498,-2.0536,-2.0553,-2.0589,-2.0602,-2.0591,-2.0656,-2.0674,-2.0727,-2.0741,-2.0754,-2.0765,-2.0749,-2.0812,-2.0818,-2.0824,-2.0844,-2.0852,-2.0758,-2.0758,-2.0758,-2.0758,0,-2.0465,-2.0498,-2.0525,-2.0561,-2.0582,-2.0619,-2.063,-2.0652,-2.0653,-2.0664,-2.0708,-2.0729,-2.0762,-2.0775,-2.0776,-2.0828,-2.0821,-2.0811,-2.079,-2.0833,-2.0853,-2.0861,-2.076,-2.076,-2.0759,-2.0759,0,0,-2.0527,-2.0566,-2.0575,-2.0592,-2.0622,-2.0648,-2.0684,-2.0717,-2.0735,-2.076,-2.0791,-2.0835,-2.0826,-2.0844,-2.0847,-2.0872,-2.0917,-2.0859,-2.0859,-2.087,-2.0976,-2.0985,-2.0994,-2.0914,-2.0916,-2.0917,-2.0975,0,-2.0582,-2.0646,-2.0653,-2.071,-2.0742,-2.0738,-2.0769,-2.0791,-2.0802,-2.083,-2.0841,-2.0873,-2.0858,-2.087,-2.0893,-2.0907,-2.0939,-2.0902,-2.0943,-2.0944,-2.0938,-2.1004,-2.1013,-2.1066,-2.0982,-2.0983,-2.0984,0,-2.0654,-2.0682,-2.0743,-2.0769,-2.0782,-2.0811,-2.0842,-2.0868,-2.0893,-2.0899,-2.092,-2.092,-2.0957,-2.0934,-2.0985,-2.096,-2.0977,-2.0986,-2.0988,-2.0993,-2.0968,-2.1011,-2.1083,-2.1092,-2.0996,-2.0995,-2.0994,0,-2.0695,-2.0747,-2.079,-2.0804,-2.0835,-2.0855,-2.0869,-2.0893,-2.0912,-2.0939,-2.0952,-2.0982,-2.0999,-2.1023,-2.1031,-2.1013,-2.1082,-2.1059,-2.1088,-2.1088,-2.1104,-2.1103,-2.118,-2.1113,-2.1113,-2.1112,-2.1112,0,-2.0756,-2.0793,-2.0809,-2.0835,-2.0877,-2.0884,-2.0925,-2.0938,-2.0959,-2.0988,-2.0986,-2.1013,-2.1022,-2.105,-2.1057,-2.1099,-2.1106,-2.1112,-2.1114,-2.1113,-2.1112,-2.1125,-2.1122,-2.1115,-2.1114,-2.1114,-2.1113,0,-2.0808,-2.082,-2.0867,-2.0893,-2.0901,-2.0931,-2.0953,-2.0978,-2.0989,-2.1025,-2.1034,-2.105,-2.1084,-2.1094,-2.1134,-2.1139,-2.1188,-2.1185,-2.118,-2.118,-2.1209,-2.1206,-2.1298,-2.1311,-2.1234,-2.1234,-2.1235,0,-2.0847,-2.0876,-2.0905,-2.0925,-2.094,-2.0971,-2.0991,-2.0999,-2.102,-2.105,-2.1072,-2.1105,-2.1133,-2.1186,-2.1201,-2.1232,-2.1231,-2.1261,-2.1236,-2.1234,-2.1233,-2.1231,-2.1235,-2.1266,-2.1267,-2.1268,-2.1268,0,-2.0915,-2.0919,-2.0948,-2.098,-2.1004,-2.1029,-2.1053,-2.1069,-2.108,-2.1103,-2.1138,-2.1159,-2.12,-2.1234,-2.1265,-2.1279,-2.1276,-2.1276,-2.1284,-2.1284,-2.1281,-2.1284,-2.1194,-2.1274,-2.1273,-2.1273,-2.1273,-2.1272,-2.0962,-2.0988,-2.1013,-2.1045,-2.1064,-2.1087,-2.1113,-2.1126,-2.1155,-2.119,-2.1192,-2.123,-2.1254,-2.1295,-2.1311,-2.134,-2.1332,-2.1344,-2.1347,-2.135,-2.1353,-2.1275,-2.1346,-2.1346,-2.1346,-2.1345,-2.1345,0,-2.1031,-2.1046,-2.1076,-2.111,-2.1136,-2.1131,-2.1157,-2.1179,-2.1212,-2.1235,-2.1261,-2.1301,-2.1333,-2.1351,-2.1383,-2.1403,-2.1402,-2.1411,-2.141,-2.1414,-2.1358,-2.1348,-2.1411,-2.1411,-2.1411,-2.1411,-2.1411,-2.1411,-2.1069,-2.1113,-2.112,-2.1173,-2.1188,-2.1225,-2.1241,-2.1262,-2.128,-2.1325,-2.1352,-2.1363,-2.1383,-2.1417,-2.1446,-2.145,-2.1463,-2.1473,-2.1476,-2.1424,-2.1418,-2.1411,-2.1402,-2.1475,-2.1475,-2.153,-2.153,-2.153]}]]